When you browse on this site, cookies collect data to enhance your experience and personalize the content and advertising you see.
Visit our Privacy Policy to learn more. By continuing to use the site, you agree to this use of cookies and data.
  • In Portugal
  • List of Countries
  • For 7 days
  • Water Temperature
  • Weather Map
  • Weather Widgets
  • user-avatar
    Login

    Hourly Weather Klodne

    Today, 20 September, Friday

    Time Temperature Precipitation Wind Pressure Humidity
    00:00 +3°C° 0 mm 2 mps 720 mmHg 93%
    01:00 +3°C° 0 mm 2 mps 720 mmHg 93%
    02:00 +3°C° 0 mm 2 mps 720 mmHg 93%
    03:00 +2°C° 0 mm 2 mps 720 mmHg 93%
    04:00 +2°C° 0 mm 2 mps 720 mmHg 93%
    05:00 +3°C° 0 mm 2 mps 720 mmHg 91%
    06:00 +4°C° 0 mm 2 mps 720 mmHg 89%
    07:00 +5°C° 0 mm 2 mps 721 mmHg 86%
    08:00 +5°C° 0 mm 3 mps 721 mmHg 79%
    09:00 +8°C° 0 mm 3 mps 721 mmHg 72%
    10:00 +10°C° 0 mm 4 mps 721 mmHg 65%
    11:00 +10°C° 0.2 mm 4 mps 721 mmHg 62%
    12:00 +11°C° 0.2 mm 4 mps 721 mmHg 59%
    13:00 +10°C° 0.2 mm 5 mps 721 mmHg 56%
    14:00 +11°C° 0.1 mm 4 mps 720 mmHg 59%
    15:00 +11°C° 0.1 mm 4 mps 720 mmHg 61%
    16:00 +10°C° 0.1 mm 3 mps 720 mmHg 64%
    17:00 +9°C° 0 mm 2 mps 720 mmHg 71%
    18:00 +7°C° 0 mm 2 mps 720 mmHg 77%
    19:00 +6°C° 0 mm 1 mps 720 mmHg 84%
    20:00 +6°C° 0 mm 1 mps 720 mmHg 85%
    21:00 +6°C° 0 mm 1 mps 720 mmHg 85%
    22:00 +6°C° 0 mm 1 mps 720 mmHg 86%
    23:00 +5°C° 0 mm 2 mps 720 mmHg 87%

    Tomorrow, 21 September, Saturday

    Time Temperature Precipitation Wind Pressure Humidity
    00:00 +4°C° 0 mm 2 mps 720 mmHg 87%
    01:00 +4°C° 0 mm 2 mps 721 mmHg 88%
    02:00 +4°C° 0 mm 2 mps 720 mmHg 88%
    03:00 +5°C° 0 mm 1 mps 720 mmHg 89%
    04:00 +5°C° 0 mm 1 mps 720 mmHg 89%
    05:00 +6°C° 0 mm 1 mps 720 mmHg 85%
    06:00 +6°C° 0 mm 1 mps 720 mmHg 82%
    07:00 +7°C° 0 mm 1 mps 721 mmHg 78%
    08:00 +10°C° 0 mm 1 mps 721 mmHg 69%
    09:00 +12°C° 0 mm 1 mps 721 mmHg 61%
    10:00 +15°C° 0 mm 1 mps 721 mmHg 52%
    11:00 +16°C° 0 mm 1 mps 721 mmHg 50%
    12:00 +16°C° 0 mm 1 mps 721 mmHg 48%
    13:00 +18°C° 0 mm 1 mps 720 mmHg 47%
    14:00 +18°C° 0 mm 1 mps 720 mmHg 50%
    15:00 +16°C° 0 mm 1 mps 720 mmHg 54%
    16:00 +16°C° 0 mm 1 mps 720 mmHg 57%
    17:00 +14°C° 0 mm 1 mps 719 mmHg 65%
    18:00 +12°C° 0 mm 1 mps 719 mmHg 72%
    19:00 +10°C° 0 mm 1 mps 719 mmHg 79%
    20:00 +9°C° 0 mm 1 mps 719 mmHg 79%
    21:00 +9°C° 0 mm 1 mps 719 mmHg 80%
    22:00 +8°C° 0 mm 1 mps 719 mmHg 81%
    23:00 +8°C° 0 mm 1 mps 719 mmHg 81%

    Day after tomorrow, 22 September, Sunday

    Time Temperature Precipitation Wind Pressure Humidity
    00:00 +8°C° 0 mm 1 mps 719 mmHg 81%
    01:00 +8°C° 0 mm 1 mps 718 mmHg 81%
    02:00 +8°C° 0 mm 1 mps 718 mmHg 82%
    03:00 +7°C° 0 mm 1 mps 718 mmHg 82%
    04:00 +7°C° 0 mm 1 mps 718 mmHg 82%
    05:00 +8°C° 0 mm 1 mps 718 mmHg 79%
    06:00 +9°C° 0 mm 1 mps 718 mmHg 76%
    07:00 +10°C° 0 mm 1 mps 718 mmHg 73%
    08:00 +12°C° 0 mm 1 mps 718 mmHg 65%
    09:00 +15°C° 0 mm 1 mps 718 mmHg 58%
    10:00 +18°C° 0 mm 1 mps 718 mmHg 51%
    11:00 +19°C° 0 mm 1 mps 718 mmHg 49%
    12:00 +20°C° 0 mm 1 mps 718 mmHg 46%
    13:00 +21°C° 0 mm 1 mps 717 mmHg 44%
    14:00 +21°C° 0 mm 1 mps 717 mmHg 49%
    15:00 +20°C° 0 mm 1 mps 716 mmHg 53%
    16:00 +20°C° 0 mm 1 mps 716 mmHg 57%
    17:00 +16°C° 0 mm 1 mps 715 mmHg 63%
    18:00 +14°C° 0 mm 1 mps 715 mmHg 69%
    19:00 +12°C° 0 mm 1 mps 715 mmHg 75%
    20:00 +11°C° 0 mm 1 mps 715 mmHg 75%
    21:00 +10°C° 0 mm 1 mps 715 mmHg 75%
    22:00 +10°C° 0 mm 1 mps 715 mmHg 76%
    23:00 +10°C° 0 mm 1 mps 714 mmHg 75%

    23 September, Monday

    Time Temperature Precipitation Wind Pressure Humidity
    00:00 +9°C° 0 mm 1 mps 714 mmHg 75%
    01:00 +9°C° 0 mm 1 mps 714 mmHg 74%
    02:00 +9°C° 0 mm 1 mps 713 mmHg 71%
    03:00 +10°C° 0 mm 1 mps 713 mmHg 68%
    04:00 +10°C° 0 mm 1 mps 713 mmHg 66%
    05:00 +11°C° 0 mm 1 mps 713 mmHg 64%
    06:00 +11°C° 0 mm 1 mps 713 mmHg 62%
    07:00 +12°C° 0 mm 1 mps 713 mmHg 60%
    08:00 +13°C° 0 mm 2 mps 713 mmHg 60%
    09:00 +14°C° 0 mm 2 mps 713 mmHg 60%
    10:00 +14°C° 0 mm 2 mps 713 mmHg 60%
    11:00 +14°C° 0 mm 2 mps 713 mmHg 63%
    12:00 +14°C° 0 mm 2 mps 713 mmHg 66%
    13:00 +14°C° 0 mm 2 mps 712 mmHg 69%
    14:00 +14°C° 0 mm 2 mps 712 mmHg 71%
    15:00 +14°C° 0 mm 2 mps 712 mmHg 72%
    16:00 +14°C° 0 mm 2 mps 712 mmHg 74%
    17:00 +13°C° 0 mm 2 mps 712 mmHg 76%
    18:00 +13°C° 0 mm 1 mps 712 mmHg 77%
    19:00 +12°C° 0 mm 1 mps 712 mmHg 79%
    20:00 +12°C° 0 mm 1 mps 712 mmHg 80%
    21:00 +12°C° 0 mm 1 mps 711 mmHg 80%
    22:00 +12°C° 0 mm 1 mps 711 mmHg 80%
    23:00 +11°C° 0 mm 1 mps 711 mmHg 81%

    24 September, Tuesday

    Time Temperature Precipitation Wind Pressure Humidity
    00:00 +11°C° 0 mm 1 mps 711 mmHg 82%
    01:00 +11°C° 0 mm 1 mps 711 mmHg 83%
    02:00 +11°C° 0 mm 1 mps 711 mmHg 83%
    03:00 +10°C° 0 mm 0 mps 711 mmHg 83%
    04:00 +10°C° 0 mm 0 mps 711 mmHg 83%
    05:00 +10°C° 0 mm 0 mps 711 mmHg 83%
    06:00 +10°C° 0 mm 0 mps 711 mmHg 82%
    07:00 +11°C° 0 mm 0 mps 711 mmHg 81%
    08:00 +11°C° 0 mm 0 mps 711 mmHg 80%
    09:00 +12°C° 0 mm 0 mps 711 mmHg 79%
    10:00 +12°C° 0 mm 0 mps 711 mmHg 78%
    11:00 +12°C° 0 mm 0 mps 711 mmHg 79%
    12:00 +12°C° 0 mm 0 mps 711 mmHg 80%
    13:00 +13°C° 0 mm 1 mps 710 mmHg 81%
    14:00 +13°C° 0 mm 1 mps 710 mmHg 80%
    15:00 +14°C° 0 mm 1 mps 710 mmHg 80%
    16:00 +14°C° 0 mm 1 mps 711 mmHg 80%
    17:00 +13°C° 0 mm 1 mps 711 mmHg 83%
    18:00 +12°C° 0 mm 1 mps 711 mmHg 87%
    19:00 +10°C° 0 mm 1 mps 711 mmHg 90%
    20:00 +10°C° 0 mm 1 mps 711 mmHg 91%
    21:00 +10°C° 0 mm 1 mps 711 mmHg 91%
    22:00 +9°C° 0 mm 0 mps 711 mmHg 92%
    23:00 +8°C° 0 mm 0 mps 711 mmHg 92%

    25 September, Wednesday

    Time Temperature Precipitation Wind Pressure Humidity
    00:00 +8°C° 0 mm 0 mps 711 mmHg 93%
    01:00 +8°C° 0 mm 0 mps 711 mmHg 93%
    02:00 +8°C° 0 mm 0 mps 711 mmHg 93%
    03:00 +8°C° 0 mm 0 mps 711 mmHg 93%
    04:00 +8°C° 0 mm 0 mps 710 mmHg 93%
    05:00 +8°C° 0 mm 0 mps 711 mmHg 91%
    06:00 +9°C° 0 mm 0 mps 711 mmHg 89%
    07:00 +10°C° 0 mm 0 mps 711 mmHg 87%
    08:00 +13°C° 0 mm 1 mps 711 mmHg 81%
    09:00 +15°C° 0 mm 1 mps 711 mmHg 75%
    10:00 +18°C° 0 mm 1 mps 712 mmHg 69%
    11:00 +18°C° 0 mm 1 mps 711 mmHg 66%
    12:00 +19°C° 0 mm 1 mps 711 mmHg 64%
    13:00 +20°C° 0 mm 1 mps 711 mmHg 61%
    14:00 +19°C° 0.1 mm 1 mps 711 mmHg 66%
    15:00 +18°C° 0.1 mm 1 mps 711 mmHg 71%
    16:00 +18°C° 0.1 mm 1 mps 710 mmHg 76%
    17:00 +15°C° 0.1 mm 1 mps 710 mmHg 80%
    18:00 +14°C° 0.1 mm 1 mps 710 mmHg 85%
    19:00 +13°C° 0.1 mm 1 mps 710 mmHg 89%
    20:00 +13°C° 0 mm 1 mps 711 mmHg 89%
    21:00 +13°C° 0 mm 1 mps 711 mmHg 88%
    22:00 +13°C° 0 mm 1 mps 711 mmHg 88%
    23:00 +13°C° 0.1 mm 1 mps 711 mmHg 88%
    Show more